Location: Newark
(33.2833°N, 8.3333°W)
Time: 10:02:27
(UTC+00:00)

Envisat - Visible Passes

Search period start: 16 September 2019 00:00
Search period end: 26 September 2019 00:00
Orbit: 764 x 766 km, 98.1° (Epoch: 16 September)

Date Brightness Start Highest point End Pass type
(mag) Time Alt. Az. Time Alt. Az. Time Alt. Az.
16 Sep 6.1 20:12:26 10° WSW 20:14:42 13° W 20:16:59 10° WNW visible
17 Sep 4.9 19:33:12 10° SSW 19:37:41 32° W 19:42:12 10° NW visible
18 Sep 3.2 18:55:47 10° S 19:00:51 78° WSW 19:05:57 10° NNW visible
19 Sep 5.9 20:00:05 10° SW 20:03:21 17° W 20:06:38 10° NW visible
20 Sep 4.4 19:21:38 10° S 19:26:23 41° W 19:31:11 10° NNW visible
22 Sep 5.5 19:48:07 10° SW 19:52:01 22° W 19:55:56 10° NW visible
23 Sep 3.9 19:10:10 10° S 19:15:06 54° W 19:20:05 10° NNW visible
24 Sep 6.2 20:16:05 10° WSW 20:17:44 11° W 20:19:24 10° WNW visible
25 Sep 5.1 19:36:21 10° SSW 19:40:42 29° W 19:45:04 10° NW visible
